ǯ����,��ʬ��,�Ǿ��������١�,ʿ���������١�,�����������١�,�Ǿ���®(m/s),ʿ����®(m/s),������®(m/s),����(���,���١ʡ��,����(hPa),�߱���(mm),�߱�����(�á�,�߱�����(mm/h),�ߤҤ礦��(hit/���),�ߤҤ礦����(�á�,�ߤҤ礦����(hit/���h),�ҡ�������(���,�ҡ������Ű���V),�Ÿ��Ű���V),�����Ű���V)
2006/11/01,00:00:01,267,50,224,0.1,3.1,6.7,26.1,86.9,1006.3,0.00,0,0.0,0.0,0,0.0,23.8,0.0,12.0,3.470
2006/11/01,00:10:01,252,58,232,0.0,3.0,7.5,26.3,86.4,1006.2,0.00,0,0.0,0.0,0,0.0,23.8,0.0,12.0,3.469
2006/11/01,00:20:01,275,80,258,0.1,2.6,6.8,26.3,86.8,1006.1,0.00,0,0.0,0.0,0,0.0,23.8,0.0,12.2,3.470
2006/11/01,00:30:01,258,77,244,0.0,2.8,6.9,26.2,86.9,1006.0,0.00,0,0.0,0.0,0,0.0,23.8,0.0,12.2,3.470
2006/11/01,00:40:01,266,79,255,0.1,2.7,6.2,26.2,86.8,1006.0,0.00,0,0.0,0.0,0,0.0,23.8,0.0,12.1,3.470
2006/11/01,00:50:01,263,78,256,0.1,2.2,5.0,26.1,85.7,1006.0,0.00,0,0.0,0.0,0,0.0,23.8,0.0,12.3,3.470
2006/11/01,01:00:01,249,57,229,0.0,2.0,4.8,26.4,86.8,1005.9,0.00,0,0.0,0.0,0,0.0,23.8,0.0,12.2,3.470
2006/11/01,01:10:01,244,52,231,0.0,2.5,5.7,26.4,87.2,1005.8,0.00,0,0.0,0.0,0,0.0,23.8,0.0,12.2,3.472
2006/11/01,01:20:01,234,45,217,0.0,3.1,7.1,26.2,86.3,1005.7,0.00,0,0.0,0.0,0,0.0,23.8,0.0,12.1,3.469
2006/11/01,01:30:01,235,54,186,0.1,2.9,6.7,26.2,85.5,1005.6,0.00,0,0.0,0.0,0,0.0,23.8,0.0,12.2,3.469
2006/11/01,01:40:01,243,54,230,0.1,3.2,6.7,26.2,85.2,1005.3,0.00,0,0.0,0.0,0,0.0,23.8,0.0,11.9,3.470
2006/11/01,01:50:01,241,52,232,0.1,3.0,7.4,26.4,85.9,1005.3,0.00,0,0.0,0.0,0,0.0,23.8,0.0,12.2,3.470
2006/11/01,02:00:01,229,41,177,0.2,3.8,7.6,26.5,87.4,1005.2,0.00,0,0.0,0.0,0,0.0,23.9,0.0,12.1,3.470
2006/11/01,02:10:01,268,45,206,0.1,3.6,7.8,26.1,87.4,1005.2,0.00,0,0.0,0.0,0,0.0,23.6,0.0,12.0,3.470
2006/11/01,02:20:01,237,43,210,0.0,3.1,7.8,26.3,87.7,1005.1,0.00,60,0.0,0.0,0,0.0,23.8,0.0,12.1,3.469
2006/11/01,02:30:01,229,43,203,0.1,3.6,7.7,26.2,87.3,1005.0,0.05,140,0.0,0.0,0,0.0,23.6,0.0,12.0,3.469
2006/11/01,02:40:01,297,41,162,0.1,3.9,7.6,26.2,87.2,1004.9,0.00,0,0.0,0.0,0,0.0,23.8,0.0,12.2,3.469
2006/11/01,02:50:01,243,56,215,0.0,2.9,6.8,26.1,88.2,1004.7,0.00,0,0.0,0.0,0,0.0,23.6,0.0,12.1,3.469
2006/11/01,03:00:01,256,55,180,0.2,2.7,6.1,26.2,88.5,1004.7,0.00,0,0.0,0.0,0,0.0,23.4,0.0,12.0,3.470
2006/11/01,03:10:01,253,43,216,0.1,3.7,8.0,26.1,88.2,1004.7,0.00,30,0.0,0.0,0,0.0,23.4,0.0,12.0,3.472
2006/11/01,03:20:01,266,37,168,0.2,4.5,9.1,26.2,87.4,1004.7,0.00,0,0.0,0.0,0,0.0,23.4,0.0,12.0,3.470
2006/11/01,03:30:01,253,37,181,0.3,4.7,8.4,26.3,86.4,1004.7,0.00,0,0.0,0.0,0,0.0,23.8,0.0,12.2,3.470
2006/11/01,03:40:01,233,36,181,0.3,4.7,9.1,26.5,86.3,1004.6,0.00,0,0.0,0.0,0,0.0,23.9,0.0,12.3,3.469
2006/11/01,03:50:01,323,37,174,0.1,4.5,8.5,26.3,86.1,1004.5,0.00,50,0.0,0.0,0,0.0,23.8,0.0,12.3,3.470
2006/11/01,04:00:01,217,37,146,0.3,4.4,8.7,26.4,86.4,1004.5,0.00,0,0.0,0.0,0,0.0,23.9,0.0,12.0,3.470
2006/11/01,04:10:01,223,36,181,0.2,4.7,9.8,26.3,86.1,1004.6,0.00,0,0.0,0.0,0,0.0,23.8,0.0,12.0,3.472
2006/11/01,04:20:01,219,40,219,0.2,3.7,7.7,26.3,86.3,1004.6,0.00,0,0.0,0.0,0,0.0,23.8,0.0,12.2,3.470
2006/11/01,04:30:01,240,40,208,0.1,4.0,8.3,26.3,86.7,1004.6,0.00,0,0.0,0.0,0,0.0,23.8,0.0,12.3,3.469
2006/11/01,04:40:01,293,34,212,0.1,4.4,9.5,26.4,86.1,1004.6,0.00,0,0.0,0.0,0,0.0,23.8,0.0,12.1,3.472
2006/11/01,04:50:01,250,29,183,0.1,4.7,9.6,26.4,86.2,1004.8,0.00,0,0.0,0.0,0,0.0,23.8,0.0,12.2,3.470
2006/11/01,05:00:01,239,32,182,0.4,4.3,8.6,26.2,85.3,1004.8,0.01,30,0.0,0.0,0,0.0,23.6,0.0,12.1,3.470
2006/11/01,05:10:01,288,37,107,0.4,3.8,7.6,26.4,85.8,1004.6,0.00,10,0.0,0.0,0,0.0,23.6,0.0,12.0,3.470
2006/11/01,05:20:01,243,34,211,0.3,4.2,8.9,26.4,86.5,1004.7,0.00,0,0.0,0.0,0,0.0,23.8,0.0,12.3,3.470
2006/11/01,05:30:01,241,34,208,0.2,4.5,9.5,26.3,86.1,1004.6,0.00,0,0.0,0.0,0,0.0,24.1,0.0,11.9,3.470
2006/11/01,05:40:01,237,38,135,0.3,4.7,9.4,26.3,85.9,1004.5,0.00,0,0.0,0.0,0,0.0,24.1,0.0,11.9,3.470
2006/11/01,05:50:01,236,41,193,0.2,4.4,9.7,26.3,85.7,1004.7,0.00,0,0.0,0.0,0,0.0,23.8,0.0,12.0,3.470
2006/11/01,06:00:01,283,46,170,0.3,4.2,9.0,26.2,85.7,1004.7,0.00,0,0.0,0.0,0,0.0,23.8,0.0,12.0,3.470
2006/11/01,06:10:01,237,46,224,0.1,4.1,9.1,26.3,85.5,1004.9,0.00,0,0.0,0.0,0,0.0,23.9,0.0,12.3,3.469
2006/11/01,06:20:01,224,42,221,0.1,4.0,8.2,26.3,85.5,1005.0,0.00,0,0.0,0.0,0,0.0,23.9,0.0,12.0,3.470
2006/11/01,06:30:01,248,42,177,0.3,4.2,9.7,26.2,85.6,1005.1,0.00,0,0.0,0.0,0,0.0,23.8,0.0,12.1,3.470
2006/11/01,06:40:01,255,34,150,0.2,4.9,9.2,26.3,85.4,1005.4,0.00,0,0.0,0.0,0,0.0,23.9,0.0,12.0,3.470
2006/11/01,06:50:01,246,32,102,0.1,4.2,8.1,26.4,85.8,1005.4,0.00,0,0.0,0.0,0,0.0,23.9,0.0,12.3,3.470
2006/11/01,07:00:01,314,38,161,0.5,4.3,8.0,26.3,85.6,1005.2,0.00,0,0.0,0.0,0,0.0,23.8,0.0,12.3,3.470
2006/11/01,07:10:01,232,36,112,0.1,4.4,8.9,26.4,85.7,1005.3,0.00,0,0.0,0.0,0,0.0,23.9,0.0,11.9,3.469
2006/11/01,07:20:01,227,39,107,0.1,3.9,7.8,26.4,85.7,1005.6,0.00,0,0.0,0.0,0,0.0,24.1,0.0,12.3,3.469
2006/11/01,07:30:01,238,41,206,0.1,3.6,7.8,26.4,86.1,1005.5,0.00,0,0.0,0.0,0,0.0,24.1,0.0,12.1,3.470
2006/11/01,07:40:01,264,36,211,0.3,4.5,8.8,26.4,85.7,1005.6,0.00,0,0.0,0.0,0,0.0,24.1,0.0,12.1,3.470
2006/11/01,07:50:01,238,36,157,0.5,4.7,9.0,26.5,85.1,1005.7,0.00,0,0.0,0.0,0,0.0,24.1,0.0,12.0,3.470
2006/11/01,08:00:01,296,37,173,0.3,4.9,9.5,26.6,85.5,1005.7,0.00,0,0.0,0.0,0,0.0,24.3,0.0,12.2,3.469
2006/11/01,08:10:01,249,33,102,0.7,4.9,9.1,26.6,85.3,1005.8,0.00,0,0.0,0.0,0,0.0,24.3,0.0,12.2,3.469
2006/11/01,08:20:01,214,34,125,0.1,4.6,8.5,26.6,84.9,1006.1,0.00,0,0.0,0.0,0,0.0,24.3,0.0,12.1,3.470
2006/11/01,08:30:01,236,35,182,0.1,4.6,8.4,26.5,85.0,1006.2,0.00,0,0.0,0.0,0,0.0,24.4,0.0,12.0,3.470
2006/11/01,08:40:01,332,35,168,0.3,4.7,8.8,26.4,84.7,1006.2,0.00,0,0.0,0.0,0,0.0,24.3,0.0,11.9,3.469
2006/11/01,08:50:01,261,36,206,0.4,5.0,9.8,26.5,84.6,1006.1,0.00,70,0.0,0.0,0,0.0,24.1,0.0,11.9,3.470
2006/11/01,09:00:01,240,34,165,0.5,4.9,9.2,26.6,84.7,1006.1,0.00,0,0.0,0.0,0,0.0,24.1,0.0,11.9,3.470
2006/11/01,09:10:01,253,37,209,0.1,4.9,9.0,26.5,83.7,1006.1,0.00,0,0.0,0.0,0,0.0,24.3,0.0,11.9,3.470
2006/11/01,09:20:01,250,40,178,0.2,4.7,9.8,26.7,83.6,1006.0,0.00,0,0.0,0.0,0,0.0,24.8,0.0,12.0,3.474
2006/11/01,09:30:01,244,41,181,0.2,4.1,8.7,26.8,83.4,1006.1,0.00,0,0.0,0.0,0,0.0,24.9,0.0,12.2,3.469
2006/11/01,09:40:01,243,44,221,0.1,3.8,8.2,26.8,83.4,1006.0,0.00,0,0.0,0.0,0,0.0,25.1,0.0,12.1,3.469
2006/11/01,09:50:01,329,41,191,0.3,4.1,8.5,26.7,82.9,1006.3,0.00,0,0.0,0.0,0,0.0,25.1,0.0,12.2,3.469
2006/11/01,10:00:01,261,48,215,0.1,3.4,6.9,26.9,82.8,1006.0,0.00,0,0.0,0.0,0,0.0,25.1,0.0,11.9,3.469
2006/11/01,10:10:01,265,42,211,0.2,4.0,8.7,27.0,82.5,1006.1,0.00,0,0.0,0.0,0,0.0,25.4,0.0,12.1,3.469
2006/11/01,10:20:01,244,40,203,0.3,4.2,8.3,26.9,81.6,1006.1,0.00,0,0.0,0.0,0,0.0,25.4,0.0,11.9,3.469
2006/11/01,10:30:01,240,39,197,0.2,4.2,8.6,27.2,80.9,1006.0,0.00,0,0.0,0.0,0,0.0,25.8,0.0,12.1,3.469
2006/11/01,10:40:01,248,37,208,0.2,4.5,8.3,26.9,80.8,1005.9,0.00,0,0.0,0.0,0,0.0,25.4,0.0,11.9,3.469
2006/11/01,10:50:01,230,36,154,0.2,4.6,8.7,26.9,81.3,1005.8,0.00,0,0.0,0.0,0,0.0,24.9,0.0,12.0,3.469
2006/11/01,11:00:01,252,36,216,0.1,4.4,8.2,26.9,82.0,1005.6,0.00,0,0.0,0.0,0,0.0,25.3,0.0,11.9,3.469
2006/11/01,11:10:01,221,39,123,0.2,3.9,8.3,26.9,81.1,1005.6,0.00,0,0.0,0.0,0,0.0,25.3,0.0,11.9,3.470
2006/11/01,11:20:01,261,41,206,0.1,3.9,7.8,27.0,80.6,1005.5,0.00,0,0.0,0.0,0,0.0,25.3,0.0,11.9,3.470
2006/11/01,11:30:01,252,38,166,0.1,3.9,8.8,27.1,81.9,1005.4,0.00,0,0.0,0.0,0,0.0,25.3,0.0,12.2,3.469
2006/11/01,11:40:01,219,35,107,0.2,4.7,8.9,26.8,81.8,1005.4,0.00,0,0.0,0.0,0,0.0,24.9,0.0,12.1,3.470
2006/11/01,11:50:01,240,35,94,0.2,4.7,8.2,26.7,81.4,1005.3,0.00,0,0.0,0.0,0,0.0,24.8,0.0,11.9,3.469
2006/11/01,12:00:01,245,44,185,0.1,3.9,9.6,26.8,81.1,1005.1,0.01,100,0.7,0.0,0,0.0,24.9,0.0,11.9,3.470
2006/11/01,12:10:01,230,45,217,0.1,3.3,7.7,26.8,83.2,1005.0,0.02,270,0.0,0.0,0,0.0,24.3,0.0,11.9,3.470
2006/11/01,12:20:01,251,39,201,0.1,3.7,7.3,26.7,83.7,1004.9,0.00,0,0.0,0.0,0,0.0,24.1,0.0,12.2,3.469
2006/11/01,12:30:01,257,44,215,0.1,4.0,8.2,26.6,84.0,1004.5,0.00,0,0.0,0.0,0,0.0,24.4,0.0,12.0,3.469
2006/11/01,12:40:01,249,49,228,0.1,3.6,8.4,26.7,83.4,1004.2,0.00,0,0.0,0.0,0,0.0,24.6,0.0,12.1,3.469
2006/11/01,12:50:01,243,61,235,0.1,3.6,8.3,26.8,82.8,1003.9,0.00,0,0.0,0.0,0,0.0,24.9,0.0,12.1,3.469
2006/11/01,13:00:01,245,60,236,0.0,3.1,7.5,26.8,82.4,1003.9,0.00,0,0.0,0.0,0,0.0,25.3,0.0,11.8,3.469
2006/11/01,13:10:01,237,54,199,0.1,3.4,8.1,27.0,81.8,1003.7,0.00,0,0.0,0.0,0,0.0,25.3,0.0,12.1,3.470
2006/11/01,13:20:01,245,53,189,0.1,3.2,7.8,27.1,81.1,1003.8,0.00,0,0.0,0.0,0,0.0,25.6,0.0,12.0,3.469
2006/11/01,13:30:01,246,43,157,0.2,3.8,7.8,27.3,80.0,1003.7,0.00,0,0.0,0.0,0,0.0,25.9,0.0,11.9,3.468
2006/11/01,13:40:01,237,37,158,0.1,4.0,7.8,27.3,80.2,1003.7,0.00,0,0.0,0.0,0,0.0,25.9,0.0,12.0,3.470
2006/11/01,13:50:01,238,34,172,0.2,4.0,7.8,27.1,80.6,1003.7,0.00,0,0.0,0.0,0,0.0,25.6,0.0,12.1,3.472
2006/11/01,14:00:01,240,35,206,0.2,4.0,7.6,27.0,80.6,1003.5,0.00,0,0.0,0.0,0,0.0,25.3,0.0,11.8,3.469
2006/11/01,14:10:01,284,36,131,0.3,4.1,7.6,27.0,81.0,1003.5,0.00,0,0.0,0.0,0,0.0,25.1,0.0,12.1,3.470
2006/11/01,14:20:01,232,36,169,0.1,3.7,7.2,26.9,80.9,1003.5,0.00,0,0.0,0.0,0,0.0,24.9,0.0,11.8,3.470
2006/11/01,14:30:01,249,29,142,0.2,4.1,7.4,27.0,81.5,1003.5,0.00,0,0.0,0.0,0,0.0,25.1,0.0,12.1,3.470
2006/11/01,14:40:01,230,28,194,0.1,4.9,8.7,26.9,81.5,1003.3,0.00,10,0.0,0.0,0,0.0,24.8,0.0,11.9,3.470
2006/11/01,14:50:01,256,22,128,0.6,4.9,9.7,26.6,83.5,1003.2,0.00,0,0.0,0.0,0,0.0,24.3,0.0,11.8,3.470
2006/11/01,15:00:01,241,24,139,0.2,5.0,9.5,26.4,84.4,1003.3,0.02,50,0.0,0.0,0,0.0,23.6,0.0,12.1,3.470
2006/11/01,15:10:01,263,26,151,0.3,5.0,9.3,26.3,84.1,1003.3,0.00,0,0.0,0.0,0,0.0,23.6,0.0,12.0,3.470
2006/11/01,15:20:01,251,31,167,0.5,4.7,8.5,26.4,84.3,1003.2,0.00,0,0.0,0.0,0,0.0,23.9,0.0,11.8,3.470
2006/11/01,15:30:01,224,33,140,0.4,4.5,8.4,26.5,84.1,1003.3,0.00,0,0.0,0.0,0,0.0,24.1,0.0,12.1,3.470
2006/11/01,15:40:01,209,25,153,0.1,4.7,9.2,26.4,84.9,1003.5,0.00,0,0.0,0.0,0,0.0,23.9,0.0,12.0,3.470
2006/11/01,15:50:01,234,21,120,0.1,4.7,9.3,26.2,85.0,1003.6,0.00,0,0.0,0.0,0,0.0,23.8,0.0,12.0,3.469
2006/11/01,16:00:01,230,22,146,0.1,4.8,8.5,26.2,85.4,1003.7,0.00,0,0.0,0.0,0,0.0,23.9,0.0,12.0,3.469
2006/11/01,16:10:01,250,22,77,0.2,4.7,10.5,26.1,85.9,1003.7,0.00,0,0.0,0.0,0,0.0,23.8,0.0,12.1,3.470
2006/11/01,16:20:01,255,26,201,0.1,4.6,9.3,26.2,85.8,1003.6,0.00,0,0.0,0.0,0,0.0,23.6,0.0,12.2,3.469
2006/11/01,16:30:01,244,27,88,0.3,4.7,8.2,26.0,86.2,1003.7,0.00,40,0.1,0.0,0,0.0,23.4,0.0,12.0,3.472
2006/11/01,16:40:01,219,27,149,0.1,4.2,8.2,26.0,86.5,1003.9,0.12,570,1.5,0.0,0,0.0,23.1,0.0,12.1,3.472
2006/11/01,16:50:01,246,26,164,0.2,4.2,7.9,25.7,86.7,1003.9,0.13,570,1.5,0.0,0,0.0,22.7,0.0,11.8,3.470
2006/11/01,17:00:01,244,34,91,0.4,3.6,7.0,25.8,87.3,1003.8,0.11,490,0.0,0.0,0,0.0,22.7,0.0,11.9,3.470
2006/11/01,17:10:01,247,34,179,0.3,3.5,6.6,25.6,87.7,1003.9,0.00,40,0.0,0.0,0,0.0,22.6,0.0,11.6,3.470
2006/11/01,17:20:01,220,35,212,0.1,3.4,7.0,25.7,88.3,1003.9,0.01,210,0.0,0.0,0,0.0,22.6,0.0,11.8,3.470
2006/11/01,17:30:01,244,33,150,0.0,3.6,7.6,25.6,88.2,1003.9,0.02,220,0.1,0.0,0,0.0,22.6,0.0,11.8,3.470
2006/11/01,17:40:01,228,35,174,0.2,4.1,7.8,25.6,88.5,1003.9,0.03,370,0.0,0.0,0,0.0,22.6,0.0,11.8,3.472
2006/11/01,17:50:01,220,32,138,0.2,3.9,8.8,25.6,88.3,1004.1,0.01,180,0.0,0.0,0,0.0,22.6,0.0,11.8,3.472
2006/11/01,18:00:01,227,32,153,0.1,4.1,7.8,25.5,88.5,1004.2,0.02,310,0.0,0.0,0,0.0,22.6,0.0,11.7,3.473
2006/11/01,18:10:01,266,25,131,0.2,4.5,9.6,25.6,88.1,1004.2,0.12,540,1.1,0.0,0,0.0,22.6,0.0,11.9,3.470
2006/11/01,18:20:01,269,25,137,0.2,4.4,18.8,25.4,87.0,1004.1,0.16,590,0.9,0.0,0,0.0,22.4,0.0,12.0,3.472
2006/11/01,18:30:01,252,18,153,0.2,5.0,11.4,24.4,84.7,1004.1,0.79,600,1.5,0.0,0,0.0,21.4,0.0,11.9,3.470
2006/11/01,18:40:01,242,22,134,0.2,5.3,10.5,24.4,85.0,1004.2,0.07,520,0.3,0.0,0,0.0,21.2,0.0,12.0,3.470
2006/11/01,18:50:01,219,26,158,0.4,4.4,8.1,24.2,84.4,1004.4,0.00,140,0.0,0.0,0,0.0,20.9,0.0,12.0,3.472
2006/11/01,19:00:01,227,29,183,0.0,3.0,6.2,24.1,83.4,1004.5,0.00,20,0.0,0.0,0,0.0,20.9,0.0,11.9,3.472
2006/11/01,19:10:01,234,30,130,0.1,1.9,4.1,24.0,82.2,1004.6,0.00,0,0.0,0.0,0,0.0,20.9,0.0,12.2,3.473
2006/11/01,19:20:01,306,12,166,0.0,1.7,4.0,24.1,80.1,1004.7,0.00,0,0.0,0.0,0,0.0,21.2,0.0,11.9,3.469
2006/11/01,19:30:01,227,55,224,0.0,0.9,3.4,24.2,80.1,1004.7,0.00,0,0.0,0.0,0,0.0,21.4,0.0,11.9,3.469
2006/11/01,19:40:01,253,35,212,0.0,1.3,3.5,24.1,78.8,1004.9,0.00,0,0.0,0.0,0,0.0,21.4,0.0,12.2,3.470
2006/11/01,19:50:01,206,15,160,0.0,1.6,4.2,24.4,77.7,1004.9,0.00,0,0.0,0.0,0,0.0,21.6,0.0,12.1,3.470
2006/11/01,20:00:01,206,25,174,0.0,1.6,4.2,24.5,77.0,1004.9,0.00,0,0.0,0.0,0,0.0,21.7,0.0,12.2,3.470
2006/11/01,20:10:01,318,118,284,0.0,0.7,2.1,24.3,79.5,1005.0,0.00,0,0.0,0.0,0,0.0,21.6,0.0,12.2,3.472
2006/11/01,20:20:01,289,56,169,0.0,1.3,4.9,24.4,79.6,1005.0,0.00,0,0.0,0.0,0,0.0,21.6,0.0,12.2,3.472
2006/11/01,20:30:01,241,18,127,0.1,2.1,4.0,24.8,78.5,1004.9,0.00,0,0.0,0.0,0,0.0,21.7,0.0,12.1,3.470
2006/11/01,20:40:01,206,15,165,0.1,2.4,5.7,24.9,78.0,1005.0,0.00,0,0.0,0.0,0,0.0,22.2,0.0,12.0,3.470
2006/11/01,20:50:01,208,17,154,0.1,2.5,5.6,24.9,76.7,1005.1,0.00,0,0.0,0.0,0,0.0,22.4,0.0,12.0,3.470
2006/11/01,21:00:01,234,10,187,0.0,2.1,4.9,25.1,77.5,1005.2,0.00,0,0.0,0.0,0,0.0,22.6,0.0,12.0,3.470
2006/11/01,21:10:01,188,2,169,0.1,1.9,4.1,25.1,77.1,1005.2,0.00,0,0.0,0.0,0,0.0,22.6,0.0,12.1,3.472
2006/11/01,21:20:01,190,5,130,0.0,1.7,4.4,25.1,76.8,1005.2,0.00,0,0.0,0.0,0,0.0,22.6,0.0,12.0,3.470
2006/11/01,21:30:01,219,353,67,0.0,1.6,3.2,25.3,76.3,1005.5,0.00,0,0.0,0.0,0,0.0,22.6,0.0,12.1,3.472
2006/11/01,21:40:01,264,353,116,0.1,1.7,4.0,25.3,75.6,1005.6,0.00,0,0.0,0.0,0,0.0,22.7,0.0,12.2,3.470
2006/11/01,21:50:01,206,349,102,0.1,1.8,4.1,25.4,75.1,1005.4,0.00,0,0.0,0.0,0,0.0,22.9,0.0,12.2,3.470
2006/11/01,22:00:01,178,359,160,0.0,1.2,2.8,25.3,74.9,1005.1,0.00,0,0.0,0.0,0,0.0,22.7,0.0,11.9,3.470
2006/11/01,22:10:01,258,0,110,0.0,1.4,3.3,25.2,74.9,1005.2,0.00,0,0.0,0.0,0,0.0,22.6,0.0,12.2,3.470
2006/11/01,22:20:01,233,358,61,0.0,1.7,3.2,25.2,74.3,1005.4,0.00,0,0.0,0.0,0,0.0,22.9,0.0,12.2,3.470
2006/11/01,22:30:01,179,356,160,0.0,1.5,3.8,25.6,76.1,1005.0,0.00,0,0.0,0.0,0,0.0,22.9,0.0,12.1,3.470
2006/11/01,22:40:01,181,353,169,0.0,1.4,3.4,25.4,76.8,1005.2,0.00,0,0.0,0.0,0,0.0,22.7,0.0,12.1,3.470
2006/11/01,22:50:01,160,339,144,0.0,1.6,4.0,25.5,77.1,1005.3,0.00,0,0.0,0.0,0,0.0,22.9,0.0,12.0,3.472
2006/11/01,23:00:01,220,338,160,0.0,1.4,3.4,25.5,77.9,1005.5,0.00,0,0.0,0.0,0,0.0,22.9,0.0,12.0,3.469
2006/11/01,23:10:01,160,333,138,0.0,1.5,3.9,25.6,78.3,1005.6,0.00,50,0.0,0.0,0,0.0,22.9,0.0,12.2,3.470
2006/11/01,23:20:01,170,346,158,0.0,1.8,5.6,25.5,79.0,1005.4,0.00,10,0.0,0.0,0,0.0,22.6,0.0,12.0,3.470
2006/11/01,23:30:01,219,347,133,0.1,2.5,5.7,25.5,80.6,1005.4,0.02,160,0.1,0.0,0,0.0,22.4,0.0,12.0,3.472
2006/11/01,23:40:01,206,349,156,0.2,3.1,5.9,25.6,82.2,1005.3,0.00,0,0.0,0.0,0,0.0,22.1,0.0,12.2,3.472
2006/11/01,23:50:01,237,3,126,0.1,3.2,6.7,25.2,82.4,1005.0,0.00,0,0.0,0.0,0,0.0,22.2,0.0,12.1,3.469
2006/11/02,00:00:01,252,1,138,0.1,2.9,6.0,25.4,80.6,1005.0,0.00,0,0.0,0.0,0,0.0,22.6,0.0,12.1,3.472
2006/11/02,00:10:01,206,2,167,0.2,2.4,5.2,25.4,80.2,1004.9,0.00,0,0.0,0.0,0,0.0,22.6,0.0,11.9,3.470
2006/11/02,00:20:01,202,8,168,0.1,2.9,6.0,25.4,80.7,1004.8,0.00,0,0.0,0.0,0,0.0,22.7,0.0,12.3,3.472
2006/11/02,00:30:01,255,12,62,0.2,3.5,6.6,25.4,80.2,1004.7,0.00,0,0.0,0.0,0,0.0,23.1,0.0,12.1,3.470
2006/11/02,00:40:01,205,6,148,0.1,3.5,6.7,25.7,82.7,1004.6,0.00,0,0.0,0.0,0,0.0,22.9,0.0,12.3,3.470
2006/11/02,00:50:01,228,11,112,0.2,3.6,7.8,25.5,82.7,1004.5,0.00,0,0.0,0.0,0,0.0,23.1,0.0,12.0,3.470
2006/11/02,01:00:01,237,16,187,0.1,4.2,8.0,25.2,79.8,1004.7,0.00,20,0.0,0.0,0,0.0,22.6,0.0,12.0,3.470
2006/11/02,01:10:01,222,7,152,0.1,3.1,6.7,25.5,81.9,1004.7,0.01,270,0.2,0.0,0,0.0,22.4,0.0,12.0,3.470
2006/11/02,01:20:01,261,8,149,0.2,3.1,6.3,25.3,83.1,1004.5,0.01,60,0.0,0.0,0,0.0,22.2,0.0,12.1,3.470
2006/11/02,01:30:01,227,14,108,0.2,3.4,7.4,25.3,82.7,1004.4,0.00,30,0.0,0.0,0,0.0,22.1,0.0,12.0,3.470
2006/11/02,01:40:01,206,14,120,0.2,4.0,7.9,25.5,82.2,1004.3,0.00,0,0.0,0.0,0,0.0,22.2,0.0,12.0,3.472
2006/11/02,01:50:01,246,18,172,0.1,4.1,8.4,25.1,82.4,1004.2,0.01,180,0.0,0.0,0,0.0,22.1,0.0,12.2,3.472
2006/11/02,02:00:01,241,19,152,0.2,4.2,9.1,25.1,83.3,1004.0,0.02,200,0.0,0.0,0,0.0,21.9,0.0,12.0,3.470
2006/11/02,02:10:01,240,16,147,0.2,4.6,9.9,25.2,82.2,1004.2,0.00,0,0.0,0.0,0,0.0,22.1,0.0,12.1,3.470
2006/11/02,02:20:01,239,15,187,0.1,4.6,8.9,25.2,82.1,1004.2,0.00,0,0.0,0.0,0,0.0,22.2,0.0,12.2,3.470
2006/11/02,02:30:01,218,10,146,0.1,4.6,9.0,25.4,82.3,1004.1,0.00,0,0.0,0.0,0,0.0,22.7,0.0,12.1,3.470
2006/11/02,02:40:01,287,7,153,0.4,4.7,10.3,25.2,80.1,1004.0,0.00,0,0.0,0.0,0,0.0,22.7,0.0,12.2,3.470
2006/11/02,02:50:01,249,6,163,0.2,4.9,9.4,25.4,79.8,1004.0,0.00,0,0.0,0.0,0,0.0,22.7,0.0,12.1,3.472
2006/11/02,03:00:01,248,357,137,0.3,4.7,10.9,25.3,80.0,1004.0,0.00,0,0.0,0.0,0,0.0,22.9,0.0,11.9,3.470
2006/11/02,03:10:01,232,357,158,0.4,5.7,10.8,25.0,79.4,1003.8,0.02,160,0.0,0.0,0,0.0,22.6,0.0,11.9,3.472
2006/11/02,03:20:01,255,2,104,0.2,5.1,11.6,25.0,79.7,1003.8,0.00,110,0.0,0.0,0,0.0,21.6,0.0,11.9,3.472
2006/11/02,03:30:01,224,357,114,0.3,5.7,11.4,25.2,78.7,1003.9,0.00,0,0.0,0.0,0,0.0,22.2,0.0,12.1,3.472
2006/11/02,03:40:01,198,358,170,0.3,5.8,11.4,25.0,77.9,1003.9,0.00,0,0.0,0.0,0,0.0,22.4,0.0,11.8,3.470
2006/11/02,03:50:01,221,13,166,0.3,6.4,13.0,25.1,76.2,1003.8,0.00,0,0.0,0.0,0,0.0,22.6,0.0,11.9,3.470
2006/11/02,04:00:01,253,5,161,0.4,5.0,10.9,25.0,75.3,1004.0,0.00,0,0.0,0.0,0,0.0,22.7,0.0,11.8,3.472
2006/11/02,04:10:01,236,0,95,0.5,5.5,10.6,25.0,74.6,1004.1,0.00,0,0.0,0.0,0,0.0,22.6,0.0,11.9,3.470
2006/11/02,04:20:01,189,7,131,0.2,5.7,12.7,25.0,74.1,1004.0,0.00,0,0.0,0.0,0,0.0,23.1,0.0,12.2,3.472
2006/11/02,04:30:01,233,11,82,0.2,6.8,13.0,24.9,74.3,1003.9,0.03,200,0.5,0.0,0,0.0,22.4,0.0,12.1,3.470
2006/11/02,04:40:01,235,7,104,0.3,5.3,11.4,24.7,73.5,1004.2,0.01,100,0.3,0.0,0,0.0,22.1,0.0,12.1,3.470
2006/11/02,04:50:01,213,5,120,0.1,5.0,10.6,24.6,73.5,1004.2,0.01,80,0.0,0.0,0,0.0,21.9,0.0,12.0,3.470
2006/11/02,05:00:01,210,3,122,0.4,5.3,11.0,24.9,71.5,1004.3,0.00,0,0.0,0.0,0,0.0,22.2,0.0,12.1,3.469
2006/11/02,05:10:01,219,1,61,0.2,5.8,12.0,24.8,71.2,1004.2,0.00,0,0.0,0.0,0,0.0,22.6,0.0,11.8,3.470
2006/11/02,05:20:01,244,12,167,0.3,6.8,14.1,24.8,71.5,1004.5,0.01,160,0.5,0.0,0,0.0,22.2,0.0,12.1,3.472
2006/11/02,05:30:01,241,10,169,0.3,6.0,12.1,24.4,72.7,1004.5,0.06,420,0.0,0.0,0,0.0,21.4,0.0,12.0,3.472
2006/11/02,05:40:01,244,14,124,0.3,6.0,12.2,24.5,72.0,1004.7,0.01,80,0.0,0.0,0,0.0,21.6,0.0,11.9,3.472
2006/11/02,05:50:01,214,13,73,0.4,6.2,12.2,24.4,69.8,1004.7,0.00,10,0.0,0.0,0,0.0,21.9,0.0,12.1,3.470
2006/11/02,06:00:01,245,12,186,0.1,6.4,14.1,24.7,69.2,1004.8,0.00,10,0.0,0.0,0,0.0,22.1,0.0,11.8,3.470
2006/11/02,06:10:01,221,9,134,0.3,5.8,11.2,24.4,70.9,1005.0,0.14,440,0.7,0.0,0,0.0,21.6,0.0,11.8,3.470
2006/11/02,06:20:01,244,11,120,0.2,5.7,10.7,24.6,71.8,1005.1,0.00,20,0.0,0.0,0,0.0,21.2,0.0,12.1,3.472
2006/11/02,06:30:01,197,5,149,0.2,4.8,9.3,24.5,69.9,1005.3,0.00,0,0.0,0.0,0,0.0,21.7,0.0,11.9,3.472
2006/11/02,06:40:01,307,13,143,0.3,4.9,9.8,24.6,66.9,1005.5,0.00,0,0.0,0.0,0,0.0,21.7,0.0,12.2,3.470
2006/11/02,06:50:01,236,11,105,0.2,5.1,9.5,24.5,65.4,1005.7,0.00,0,0.0,0.0,0,0.0,22.4,0.0,12.1,3.470
2006/11/02,07:00:01,202,14,151,0.2,5.6,11.4,24.6,65.5,1005.3,0.00,0,0.0,0.0,0,0.0,22.7,0.0,11.9,3.470
2006/11/02,07:10:01,241,12,114,0.4,5.5,10.9,24.3,67.3,1005.5,0.03,250,0.0,0.0,0,0.0,21.9,0.0,11.8,3.470
2006/11/02,07:20:01,197,14,161,0.2,5.0,11.0,24.2,64.9,1005.4,0.00,0,0.0,0.0,0,0.0,22.4,0.0,12.1,3.470
2006/11/02,07:30:01,224,23,177,0.3,4.9,9.7,24.1,64.0,1005.4,0.00,0,0.0,0.0,0,0.0,22.6,0.0,12.0,3.472
2006/11/02,07:40:01,243,18,168,0.2,5.1,9.9,24.1,64.0,1005.5,0.00,20,0.0,0.0,0,0.0,22.6,0.0,11.9,3.470
2006/11/02,07:50:01,195,13,70,0.3,5.5,10.7,23.8,65.2,1005.7,0.08,270,0.0,0.0,0,0.0,21.9,0.0,12.1,3.470
2006/11/02,08:00:01,230,10,106,0.2,5.2,9.2,24.2,66.3,1006.0,0.00,0,0.0,0.0,0,0.0,22.2,0.0,11.8,3.470
2006/11/02,08:10:01,245,12,142,0.6,5.5,10.7,24.3,66.0,1006.0,0.00,0,0.0,0.0,0,0.0,22.7,0.0,12.1,3.470
2006/11/02,08:20:01,247,12,174,0.3,5.6,11.0,24.2,64.5,1006.0,0.00,0,0.0,0.0,0,0.0,23.1,0.0,12.0,3.470
2006/11/02,08:30:01,202,13,73,0.3,5.9,11.5,24.4,64.2,1006.1,0.01,80,0.0,0.0,0,0.0,23.4,0.0,11.9,3.470
2006/11/02,08:40:01,228,14,173,0.3,5.4,10.4,24.0,63.6,1006.1,0.01,90,0.0,0.0,0,0.0,23.3,0.0,11.9,3.470
2006/11/02,08:50:01,245,21,188,0.1,5.8,11.5,24.0,63.2,1006.1,0.00,0,0.0,0.0,0,0.0,23.3,0.0,12.0,3.472
2006/11/02,09:00:01,248,17,102,0.5,6.1,12.3,24.1,62.5,1006.3,0.00,0,0.0,0.0,0,0.0,23.6,0.0,12.0,3.469
2006/11/02,09:10:01,239,14,150,0.1,5.9,10.8,24.3,62.9,1006.4,0.00,10,0.0,0.0,0,0.0,23.6,0.0,12.1,3.470
2006/11/02,09:20:01,226,15,146,0.2,5.8,10.8,24.3,62.0,1006.5,0.00,0,0.0,0.0,0,0.0,24.1,0.0,12.0,3.469
2006/11/02,09:30:01,227,17,71,0.3,5.5,11.6,24.3,60.4,1006.5,0.00,0,0.0,0.0,0,0.0,24.3,0.0,12.1,3.470
2006/11/02,09:40:01,298,17,133,0.1,5.3,10.4,24.3,61.7,1006.6,0.00,0,0.0,0.0,0,0.0,24.4,0.0,12.0,3.470
2006/11/02,09:50:01,246,17,131,0.4,5.6,12.1,24.3,61.8,1006.6,0.00,0,0.0,0.0,0,0.0,24.1,0.0,12.1,3.469
2006/11/02,10:00:01,250,12,132,0.2,5.9,11.9,24.4,62.6,1006.7,0.00,0,0.0,0.0,0,0.0,24.3,0.0,12.1,3.470
2006/11/02,10:10:01,226,17,138,0.3,5.6,10.6,24.3,60.1,1006.7,0.00,0,0.0,0.0,0,0.0,24.3,0.0,12.0,3.473
2006/11/02,10:20:01,305,13,102,0.1,5.5,11.1,24.4,59.1,1006.7,0.00,0,0.0,0.0,0,0.0,24.4,0.0,12.1,3.470
2006/11/02,10:30:01,235,12,166,0.3,5.4,10.9,24.4,59.2,1006.7,0.00,0,0.0,0.0,0,0.0,24.9,0.0,12.0,3.470
2006/11/02,10:40:01,227,11,166,0.2,5.2,11.2,24.5,58.4,1006.4,0.00,0,0.0,0.0,0,0.0,24.8,0.0,11.9,3.470
2006/11/02,10:50:01,301,14,153,0.2,5.5,10.6,24.5,58.3,1006.4,0.00,0,0.0,0.0,0,0.0,24.8,0.0,12.0,3.469
2006/11/02,11:00:01,212,17,135,0.1,5.4,11.1,24.5,56.0,1006.2,0.00,0,0.0,0.0,0,0.0,24.3,0.0,11.9,3.469
2006/11/02,11:10:01,223,18,124,0.1,5.2,9.7,24.4,58.2,1006.2,0.00,0,0.0,0.0,0,0.0,24.4,0.0,12.0,3.470
2006/11/02,11:20:01,231,13,178,0.2,5.6,11.7,24.3,57.3,1006.1,0.00,0,0.0,0.0,0,0.0,24.3,0.0,11.9,3.469
2006/11/02,11:30:01,232,11,105,0.5,5.3,11.4,24.3,60.1,1006.0,0.00,0,0.0,0.0,0,0.0,24.1,0.0,11.9,3.470
2006/11/02,11:40:01,206,15,120,0.1,5.8,10.3,24.3,54.4,1005.8,0.00,0,0.0,0.0,0,0.0,24.3,0.0,11.9,3.470
2006/11/02,11:50:01,222,11,165,0.3,5.6,11.1,24.3,57.3,1006.0,0.00,0,0.0,0.0,0,0.0,24.4,0.0,12.0,3.469
2006/11/02,12:00:01,238,11,184,0.2,5.6,12.3,24.4,55.0,1006.0,0.00,0,0.0,0.0,0,0.0,24.4,0.0,11.9,3.472
2006/11/02,12:10:01,236,15,71,0.6,5.9,12.3,24.3,58.3,1005.7,0.00,0,0.0,0.0,0,0.0,24.4,0.0,12.0,3.472
2006/11/02,12:20:01,227,14,136,0.4,5.4,10.5,24.4,57.6,1005.6,0.00,0,0.0,0.0,0,0.0,24.4,0.0,11.9,3.470
2006/11/02,12:30:01,198,14,172,0.3,5.4,10.4,24.4,61.9,1005.8,0.00,0,0.0,0.0,0,0.0,24.6,0.0,12.0,3.469
2006/11/02,12:40:01,253,9,159,0.3,5.0,11.5,24.2,55.4,1005.6,0.00,0,0.0,0.0,0,0.0,24.3,0.0,11.9,3.469
2006/11/02,12:50:01,259,15,162,0.0,5.7,11.3,24.3,57.0,1005.5,0.00,0,0.0,0.0,0,0.0,24.6,0.0,12.0,3.470
2006/11/02,13:00:01,228,14,135,0.2,5.5,10.2,24.3,56.5,1005.4,0.00,0,0.0,0.0,0,0.0,24.3,0.0,12.0,3.470
2006/11/02,13:10:01,268,16,119,0.3,5.5,11.2,24.4,57.7,1005.4,0.00,0,0.0,0.0,0,0.0,24.3,0.0,11.9,3.469
2006/11/02,13:20:01,216,13,142,0.2,5.5,10.9,24.5,57.6,1005.3,0.00,0,0.0,0.0,0,0.0,24.6,0.0,11.8,3.472
2006/11/02,13:30:01,244,14,144,0.2,6.1,13.4,24.8,56.7,1005.0,0.00,0,0.0,0.0,0,0.0,25.3,0.0,12.0,3.469
2006/11/02,13:40:01,197,16,141,0.4,5.9,11.0,24.7,55.6,1005.0,0.00,0,0.0,0.0,0,0.0,25.4,0.0,12.0,3.469
2006/11/02,13:50:01,251,15,151,0.5,6.2,12.2,24.7,57.5,1004.8,0.00,0,0.0,0.0,0,0.0,25.1,0.0,12.0,3.470
2006/11/02,14:00:01,200,21,126,0.2,6.4,12.5,24.7,55.6,1004.6,0.00,0,0.0,0.0,0,0.0,24.9,0.0,12.0,3.470
2006/11/02,14:10:01,249,18,137,0.1,6.1,13.5,24.8,55.9,1004.7,0.00,0,0.0,0.0,0,0.0,25.3,0.0,12.1,3.469
2006/11/02,14:20:01,257,18,188,0.3,6.2,11.8,24.6,58.0,1004.8,0.00,0,0.0,0.0,0,0.0,25.1,0.0,12.0,3.472
2006/11/02,14:30:01,254,17,141,0.4,6.4,12.7,24.6,56.6,1004.7,0.00,0,0.0,0.0,0,0.0,25.1,0.0,12.0,3.470
2006/11/02,14:40:01,244,21,152,0.3,6.2,12.0,24.7,58.9,1004.8,0.00,0,0.0,0.0,0,0.0,24.9,0.0,12.0,3.470